TimeCDT,TemperatureF,Dew PointF,Humidity,Sea Level PressureIn,VisibilityMPH,Wind Direction,Wind SpeedMPH,Gust SpeedMPH,PrecipitationIn,Events,Conditions,WindDirDegrees,DateUTC
12:53 AM,60.1,43.0,53,30.22,10.0,SW,13.8,-,N/A,,Clear,220,2013-03-15 05:53:00
1:53 AM,57.9,42.1,56,30.22,10.0,SW,11.5,-,N/A,,Clear,220,2013-03-15 06:53:00
2:53 AM,55.9,42.1,60,30.21,10.0,SW,10.4,-,N/A,,Clear,220,2013-03-15 07:53:00
3:53 AM,55.0,42.1,62,30.20,10.0,SSW,9.2,-,N/A,,Clear,210,2013-03-15 08:53:00
4:53 AM,53.1,43.0,69,30.19,10.0,SSW,8.1,-,N/A,,Clear,210,2013-03-15 09:53:00
5:53 AM,53.1,43.0,69,30.19,10.0,SW,11.5,-,N/A,,Clear,220,2013-03-15 10:53:00
6:53 AM,51.1,43.0,74,30.20,10.0,SW,9.2,-,N/A,,Clear,220,2013-03-15 11:53:00
7:53 AM,51.1,44.1,77,30.20,10.0,SW,5.8,-,N/A,,Clear,220,2013-03-15 12:53:00
8:53 AM,55.0,46.0,72,30.20,10.0,SW,9.2,-,N/A,,Clear,220,2013-03-15 13:53:00
9:53 AM,60.1,48.9,67,30.21,10.0,SW,11.5,-,N/A,,Clear,230,2013-03-15 14:53:00
10:53 AM,66.0,48.9,54,30.18,10.0,SW,11.5,20.7,N/A,,Clear,220,2013-03-15 15:53:00
11:53 AM,70.0,46.9,44,30.15,10.0,SW,16.1,24.2,N/A,,Clear,220,2013-03-15 16:53:00
12:53 PM,73.9,46.9,38,30.13,10.0,SSW,16.1,-,N/A,,Clear,200,2013-03-15 17:53:00
1:53 PM,75.0,46.9,37,30.10,10.0,WSW,13.8,-,N/A,,Clear,240,2013-03-15 18:53:00
2:53 PM,77.0,46.9,34,30.06,10.0,SSW,13.8,-,N/A,,Clear,210,2013-03-15 19:53:00
3:53 PM,78.1,46.9,33,30.03,10.0,SSW,11.5,18.4,N/A,,Clear,210,2013-03-15 20:53:00
4:53 PM,78.1,46.0,32,30.02,10.0,SSW,12.7,20.7,N/A,,Clear,200,2013-03-15 21:53:00
5:53 PM,75.9,44.1,32,30.00,10.0,SW,13.8,21.9,N/A,,Clear,220,2013-03-15 22:53:00
6:53 PM,73.9,45.0,35,29.99,8.0,SSW,12.7,-,N/A,,Partly Cloudy,210,2013-03-15 23:53:00
7:53 PM,71.1,44.1,38,29.99,10.0,SSW,9.2,-,N/A,,Clear,200,2013-03-16 00:53:00
8:53 PM,69.1,44.1,40,29.98,10.0,South,9.2,-,N/A,,Clear,190,2013-03-16 01:53:00
9:53 PM,66.9,46.0,47,29.99,10.0,South,13.8,21.9,N/A,,Clear,190,2013-03-16 02:53:00
10:53 PM,66.9,48.0,51,29.98,10.0,South,17.3,25.3,N/A,,Clear,180,2013-03-16 03:53:00
11:53 PM,64.0,48.9,58,29.98,10.0,South,12.7,-,N/A,,Clear,180,2013-03-16 04:53:00